{"data":{"norad_id":39419,"intl_designator":"2013-066D","name":"DUBAISAT-2","alt_names":[],"object_type":"PAYLOAD","status":"ACTIVE","operator":null,"country":"UAE","launch_date":"2013-11-21","launch_site_code":"DLS","launch_vehicle":null,"mission":null,"orbit_class":"UNKNOWN","rcs_meters":1.777,"size_class":null,"mass_kg":null,"dimensions":null,"purposes":["earth_obs"],"wikipedia_slug":null,"has_3d_model":false,"image_url":null,"decayed_at":null,"tle_current":{"epoch":"2026-09-20T04:47:51.010944Z","epoch_age_seconds":44251,"freshness":"FRESH","line1":"1 39419U 13066D   26263.19989596  .00001981  00000+0  12305-3 0  9999","line2":"2 39419  97.4662 250.9422 0012779  69.3320 290.9279 15.10753173700733","mean_motion":15.10753173,"eccentricity":0.0012779,"inclination_deg":97.4662,"raan_deg":250.9422,"arg_perigee_deg":69.332,"mean_anomaly_deg":290.9279,"bstar":0.00012305,"rev_number":70073,"period_min":95.31669538979,"perigee_km":525.06886225979,"apogee_km":542.73465091387,"semimajor_km":6912.0387565868,"source":"CELESTRAK","updated_at":"2026-09-20T09:00:33.895598Z"}}}